Theta_e
322 312 311 312 316 317 316 317 301 309 306 298 299 300 299 310 310 307 307 310 307 310 311 312 312 320 316 313 313 314 315 310 315 304 304 323 332 334 337 340 341 336 335 335 336 337 338 340 341 341 341 341 340 340 339 339 338 337 337 337 338 338 338 337 337 337 337 337 337 336 336 336 335 335 334 335 335 335 334 334 336 336 335 334 333 333 333 332 331 328 331 330 329 328 327 327 326
313 310 311 314 316 321 313 317 305 302 303 299 300 302 304 305 303 305 304 305 306 308 309 310 311 312 320 322 316 317 315 318 324 322 325 331 333 336 339 339 340 335 335 335 337 336 337 337 342 342 340 341 340 340 339 339 338 337 336 337 338 338 337 337 337 337 336 336 336 336 336 335 336 335 334 334 334 333 333 333 335 335 335 334 333 333 332 330 330 329 329 328 328 328 327 327 326
313 311 313 319 317 315 313 312 298 299 296 294 297 302 307 304 303 306 307 305 308 308 309 309 311 312 312 318 314 313 309 323 328 330 326 331 329 329 337 339 342 337 336 335 336 336 337 337 343 342 340 341 340 338 338 338 338 337 337 338 338 338 337 338 337 337 337 336 336 336 335 336 335 334 334 333 333 332 332 332 334 334 333 333 333 332 331 330 328 328 328 328 327 328 327 327 326
318 315 312 317 313 316 305 305 301 296 292 293 294 302 303 304 304 305 309 307 307 307 309 307 307 320 314 310 313 319 317 321 328 329 327 327 329 334 337 338 341 340 336 336 336 336 336 339 341 342 341 339 338 338 337 337 338 338 338 338 338 338 338 337 337 337 336 336 336 336 335 335 335 335 334 333 333 333 333 333 333 334 334 332 332 331 330 328 327 327 326 327 328 327 327 326 325
314 317 316 315 313 308 308 303 301 300 294 295 294 302 303 305 304 306 306 308 307 307 309 307 306 317 315 315 316 312 317 325 328 331 330 333 337 336 337 338 339 339 339 336 335 336 335 340 340 340 340 339 339 338 338 337 338 338 337 337 337 337 337 337 336 336 336 336 336 336 335 335 334 335 334 333 333 334 333 334 334 333 333 331 331 329 329 328 326 326 326 326 326 327 326 325 324
312 312 319 316 308 314 310 297 296 295 297 299 296 297 303 305 304 304 303 305 308 307 307 308 306 304 306 309 320 321 326 317 328 331 332 332 336 338 337 338 339 338 340 340 335 333 336 339 338 339 340 338 339 339 337 337 338 337 337 336 336 336 336 336 336 336 336 336 336 336 335 334 334 334 334 334 334 334 334 334 334 333 331 331 330 329 328 327 326 326 326 325 325 325 325 324 324
315 313 315 313 308 310 299 296 295 296 296 299 296 298 300 302 301 301 300 300 307 307 308 309 307 309 303 313 325 328 328 332 328 329 334 335 336 337 336 337 337 336 338 339 336 334 337 338 338 340 341 339 338 338 338 337 338 338 337 336 336 337 335 335 336 335 335 336 335 335 335 334 334 334 333 333 334 333 333 333 333 332 331 330 330 328 328 327 325 326 325 324 323 324 324 323 323
319 313 312 303 302 300 294 294 295 297 294 298 299 300 301 300 299 298 298 297 298 299 303 304 307 306 303 313 307 325 323 330 333 335 336 336 336 336 336 336 335 335 334 338 338 335 338 337 338 339 340 339 338 338 337 335 337 336 337 336 336 337 336 335 335 335 335 335 335 335 335 334 333 333 333 333 333 332 333 332 332 331 331 329 329 328 327 326 324 325 324 323 322 322 322 322 321
313 309 314 305 297 303 296 293 294 297 296 298 297 302 305 300 299 297 296 299 302 301 303 303 305 299 306 304 310 322 319 326 334 336 336 336 337 336 335 334 333 333 336 340 342 336 335 337 338 338 340 340 339 337 336 336 338 336 336 336 336 334 336 335 334 334 334 334 334 333 333 333 333 332 332 332 332 332 331 331 331 331 330 329 328 327 327 326 324 323 323 323 322 322 322 321 321
310 307 301 302 301 293 294 295 294 295 296 297 297 299 299 299 299 299 298 298 300 300 302 303 304 299 304 304 308 317 315 326 327 332 334 336 337 336 334 334 335 334 335 339 339 336 335 338 337 337 338 340 338 339 337 337 337 336 336 336 336 335 335 335 334 334 335 333 333 333 333 332 332 332 332 331 332 331 331 331 331 331 329 329 328 328 326 326 324 322 322 322 321 322 322 321 320
303 303 308 297 295 292 294 291 293 296 295 297 299 301 300 299 299 298 300 304 303 299 300 304 300 299 300 305 307 318 323 326 323 323 330 334 335 335 333 335 335 335 335 336 338 336 336 336 337 336 337 338 338 339 338 338 337 337 336 336 337 335 335 334 335 334 334 333 333 332 333 332 331 331 331 331 331 330 330 330 330 330 329 328 328 326 326 325 324 323 322 321 321 321 321 320 319
300 300 303 295 292 292 292 291 293 295 296 296 298 301 299 300 299 299 298 296 298 298 298 303 298 301 298 299 309 316 319 321 323 324 326 333 333 335 336 334 335 335 336 336 337 335 336 336 336 336 335 336 336 337 338 338 338 337 336 336 335 335 334 334 334 334 332 333 332 332 331 331 330 330 330 330 330 329 329 329 329 329 329 328 327 326 325 324 324 322 321 320 321 320 320 319 318
300 304 296 294 294 293 292 291 293 295 296 295 296 299 301 298 297 298 297 297 298 298 299 303 303 302 297 301 316 318 313 314 325 327 328 325 331 333 335 335 336 335 336 336 336 334 334 335 336 336 335 335 335 335 335 336 336 336 336 336 334 333 333 333 334 333 333 332 332 332 331 330 329 329 329 329 329 329 328 328 328 328 328 327 326 325 325 324 323 322 321 320 320 319 318 318 318
302 305 299 293 297 293 292 293 293 290 291 296 297 300 299 297 299 299 298 296 297 296 300 302 300 300 296 300 302 311 311 315 318 326 327 328 331 332 333 334 335 335 335 335 334 334 334 335 335 335 335 335 335 334 333 333 334 335 335 336 335 334 333 333 334 333 332 331 331 330 329 329 329 330 330 330 329 328 329 329 328 327 327 326 325 325 325 324 323 321 320 319 319 318 317 317 316
306 304 299 298 292 293 295 292 292 291 291 297 302 299 298 300 300 298 297 297 296 301 302 303 301 300 293 304 304 309 312 315 316 317 322 327 331 332 331 332 333 333 333 334 333 334 334 335 335 335 334 334 334 333 333 332 332 332 333 334 334 334 333 333 333 332 332 331 331 330 330 330 329 329 329 329 328 327 328 328 327 327 327 325 326 325 324 324 322 321 319 318 318 317 317 316 316
307 302 300 296 291 293 295 293 295 292 292 297 304 301 299 300 301 298 302 303 300 301 301 298 304 297 300 299 303 308 312 314 315 316 312 318 328 330 331 331 331 331 332 333 333 332 334 332 334 334 334 333 333 332 332 332 331 330 331 331 332 331 330 330 330 330 330 329 329 329 329 328 328 327 328 325 327 327 328 324 326 326 326 325 325 325 323 323 322 320 318 318 317 316 315 315 316
307 305 295 294 290 293 294 291 291 288 293 296 300 299 297 296 301 301 304 302 297 299 300 301 300 304 302 302 306 309 312 315 315 314 314 314 323 325 326 329 329 330 331 331 331 332 331 333 333 333 333 333 332 331 331 330 330 330 329 329 329 329 329 328 327 326 326 326 326 326 326 323 322 323 322 322 325 322 323 324 325 325 325 324 324 324 322 321 320 319 318 316 316 314 313 314 315
305 298 296 290 292 292 294 292 293 295 292 294 297 300 298 295 299 300 302 300 299 300 300 302 303 303 303 308 307 310 311 312 313 311 310 309 310 320 323 325 327 327 328 329 330 332 331 332 332 333 333 332 330 330 330 330 330 330 330 329 328 328 327 327 326 325 325 324 323 322 321 320 320 320 320 321 319 320 321 322 323 324 325 324 323 322 321 320 319 318 317 315 314 313 314 307 309
301 295 294 288 293 293 295 295 295 293 294 297 296 298 299 297 299 299 296 297 297 296 298 299 299 303 305 307 308 309 310 310 311 311 310 310 309 310 318 324 325 325 324 326 328 330 331 331 331 331 332 331 330 329 330 329 329 330 330 329 327 326 326 325 325 325 324 324 322 321 319 318 319 318 318 319 319 319 320 321 322 323 323 324 323 321 320 319 318 317 315 314 313 313 308 303 303
302 296 290 293 296 295 297 297 300 298 298 296 296 297 297 298 298 304 297 296 297 294 295 296 298 302 304 308 308 309 309 309 310 310 310 309 310 310 312 319 324 324 322 325 327 330 331 331 330 331 331 331 329 329 329 328 329 329 329 328 327 326 326 326 325 325 324 322 322 320 319 318 318 316 317 317 316 317 318 319 318 318 319 319 319 319 318 317 318 317 315 314 312 310 303 304 303
301 293 291 296 297 292 295 298 301 299 301 298 295 297 296 299 302 302 300 294 293 295 298 301 300 300 302 304 306 309 308 307 308 309 309 310 310 310 309 311 316 324 324 325 326 328 330 329 330 330 331 330 328 327 327 327 328 328 328 327 326 326 326 326 325 324 323 321 321 320 319 317 317 316 315 315 315 315 316 316 315 313 312 311 312 307 306 307 306 305 305 304 298 299 300 301 301
298 293 295 295 297 293 300 298 300 298 299 298 297 295 297 301 300 299 298 292 291 295 303 301 300 301 302 302 306 307 307 307 306 307 307 308 309 309 310 308 313 318 326 324 324 326 329 330 331 331 331 329 328 327 327 327 328 327 326 326 326 325 325 325 324 323 322 321 321 319 318 317 316 316 315 314 314 314 314 315 315 313 311 310 308 304 302 301 300 299 298 297 295 296 297 297 298
291 295 295 299 297 295 301 299 300 299 298 297 295 299 299 298 296 298 297 295 297 302 304 303 302 304 305 305 305 304 305 305 305 306 307 306 306 309 309 308 308 313 320 324 325 326 329 330 330 330 329 329 328 327 327 326 327 326 326 325 324 324 325 323 323 323 322 321 321 319 317 316 315 315 314 314 313 313 313 314 314 313 311 309 307 303 300 298 296 295 294 294 295 295 295 295 296
297 292 297 300 301 297 301 297 299 297 297 296 299 301 296 297 291 298 297 299 300 303 305 305 304 305 305 303 304 304 305 305 305 307 307 306 307 307 308 308 306 307 311 315 324 327 327 329 330 329 328 328 327 327 326 326 327 326 325 324 324 323 323 323 322 322 322 321 319 318 317 316 315 314 313 313 312 312 312 312 312 312 311 308 304 301 298 295 294 294 294 293 293 293 293 293 294
295 294 299 302 301 301 300 297 297 300 299 299 299 296 296 297 295 297 295 298 301 303 305 304 305 304 303 302 302 303 303 304 304 305 307 305 306 308 309 308 306 305 305 312 316 325 327 328 329 327 327 327 326 327 326 326 326 326 324 324 323 321 322 322 322 322 321 319 318 318 317 315 315 314 313 313 313 312 312 312 312 309 308 305 302 299 298 295 294 294 294 293 292 292 292 292 293
298 299 300 300 299 300 299 300 300 300 300 300 297 295 297 297 300 296 297 299 302 304 303 304 303 302 302 302 302 302 302 303 304 305 305 306 308 308 308 307 307 306 305 306 311 318 326 328 328 327 327 327 327 327 325 325 326 324 324 324 323 320 321 321 321 320 319 318 317 317 316 316 315 314 313 312 312 310 310 310 309 307 305 304 302 299 297 295 294 293 293 293 292 291 291 292 291
299 299 299 297 298 299 301 299 300 300 300 298 295 294 295 299 297 289 298 301 303 303 302 302 301 300 302 303 303 303 303 303 303 304 305 306 306 306 306 307 307 307 306 305 308 313 324 327 328 328 328 325 326 325 324 324 325 324 323 323 321 321 321 320 319 319 318 317 317 316 316 315 314 313 312 311 311 310 309 309 308 307 305 304 302 299 298 296 294 294 294 292 291 291 291 291 290
301 300 296 295 296 298 299 299 297 297 297 298 297 294 296 297 297 292 296 304 304 300 300 300 301 300 300 302 303 303 303 303 303 304 304 304 304 304 304 304 305 307 306 305 306 310 320 325 326 327 327 326 325 325 324 324 324 323 322 322 321 321 320 319 319 318 317 316 316 315 315 314 314 313 312 311 310 309 308 308 307 306 305 302 300 298 296 295 295 295 294 293 292 291 291 290 291
299 297 290 295 299 297 298 297 298 297 295 298 298 292 290 292 291 296 300 304 302 299 299 300 300 300 299 300 300 300 300 301 301 301 303 304 304 306 304 306 306 305 306 307 307 308 311 324 325 326 327 324 324 324 324 324 323 323 322 321 320 320 320 319 318 317 317 316 315 315 314 314 313 312 311 310 310 309 308 307 306 305 302 299 298 297 296 295 295 295 295 294 292 292 291 290 293
300 297 292 291 293 294 299 299 298 294 296 296 296 280 284 293 295 301 304 303 301 299 297 298 298 299 298 298 299 299 300 300 300 302 302 303 304 304 304 305 306 306 305 305 306 308 313 321 325 325 325 324 324 323 323 323 323 323 322 321 320 319 319 318 318 317 316 316 315 315 314 313 313 312 311 310 310 309 309 307 306 303 300 298 297 296 295 295 294 294 293 292 294 292 291 291 289
291 299 296 288 287 286 296 297 295 293 298 298 297 282 284 288 295 302 303 303 300 297 296 295 297 298 298 298 298 299 300 301 301 302 304 305 305 305 305 305 306 306 305 306 306 306 307 313 324 324 322 323 322 322 322 322 322 321 321 320 319 318 318 318 317 317 316 316 315 314 314 313 312 312 311 310 309 309 308 306 304 300 299 298 297 296 295 294 293 293 292 291 291 290 291 291 290
293 289 286 290 284 289 296 298 296 292 296 296 293 282 284 288 291 303 303 301 299 296 296 297 297 297 298 298 298 299 300 302 303 305 306 306 306 304 305 305 306 306 306 306 307 307 307 307 315 320 321 322 322 322 321 321 321 321 321 318 318 317 317 317 316 316 316 316 315 313 313 312 312 311 311 310 308 308 307 304 301 300 300 298 297 296 295 293 292 293 292 291 290 290 291 290 290
292 287 284 284 286 287 293 296 297 295 293 296 292 282 286 287 294 301 302 301 300 297 297 297 298 299 299 298 298 298 300 301 303 304 305 306 306 306 306 305 306 307 306 306 306 306 306 306 307 313 319 321 321 321 321 319 320 319 319 319 317 317 316 316 316 315 315 315 314 313 312 312 311 311 311 310 308 307 306 303 301 301 300 298 297 296 295 294 293 293 292 293 292 290 290 290 290
286 290 284 287 284 285 284 291 294 296 292 289 292 287 287 289 292 294 296 297 296 295 295 296 298 297 298 298 299 300 300 300 301 302 304 306 306 307 307 308 306 306 306 306 306 306 306 306 306 306 314 321 320 321 321 320 317 318 318 317 316 316 316 315 314 314 314 313 313 312 312 311 311 311 310 309 308 307 306 303 301 301 299 298 297 296 295 295 294 293 293 293 293 291 290 290 290
283 282 282 283 286 287 286 287 291 292 294 290 289 288 288 290 292 293 295 297 297 295 295 295 296 296 297 298 298 298 299 299 300 302 305 307 307 308 308 307 306 305 305 305 305 306 306 306 306 306 307 318 319 321 320 319 317 316 315 315 315 315 314 313 313 312 312 312 311 311 310 310 310 310 309 308 307 306 304 302 301 300 300 298 297 296 295 295 294 294 293 292 293 292 291 291 290
288 289 287 286 282 283 283 291 293 293 289 287 287 285 286 288 290 292 293 295 295 295 295 296 296 295 296 297 297 297 298 298 301 303 305 306 306 307 307 307 306 306 306 306 305 305 305 304 305 305 305 316 319 319 319 315 313 311 310 311 312 312 312 311 311 311 311 310 310 310 310 309 309 308 308 308 307 304 302 302 301 301 299 298 297 295 294 294 294 293 292 292 292 293 293 292 291
290 288 288 286 285 287 291 293 292 293 288 286 287 287 287 288 289 291 293 294 294 294 294 295 295 296 296 296 297 297 298 298 302 304 305 305 306 305 307 306 306 305 305 305 305 304 305 305 304 304 305 312 317 316 315 312 310 308 308 309 309 310 310 310 310 310 310 310 309 309 309 309 308 308 307 307 305 303 302 302 301 300 299 297 295 294 294 294 294 294 293 293 293 292 292 292 291
290 287 286 285 287 285 291 292 292 292 287 284 287 287 287 288 290 292 294 293 292 294 294 294 295 296 296 297 297 297 298 301 302 300 302 302 301 304 304 304 305 303 303 304 304 304 305 305 304 304 304 306 316 315 314 313 312 310 308 308 308 309 308 308 308 308 308 308 308 308 308 308 308 307 306 305 304 303 302 301 301 299 298 297 295 295 295 296 295 295 294 293 294 293 292 292 292
290 286 284 283 284 286 291 291 292 292 289 285 287 285 286 288 290 292 293 293 294 295 295 295 295 295 295 297 296 297 297 297 297 298 299 298 299 301 300 300 300 300 301 304 304 304 304 304 305 304 304 306 314 315 314 312 312 311 310 308 308 307 306 309 309 308 307 307 307 307 307 307 307 306 305 304 303 302 301 301 300 298 297 297 295 294 295 295 295 295 294 294 293 294 293 294 292
285 284 283 282 287 283 280 289 289 292 289 285 286 285 287 289 291 292 294 295 295 297 298 297 297 294 294 295 295 296 296 296 295 294 294 296 297 298 299 299 300 300 301 301 301 303 304 304 305 305 304 309 312 313 313 313 312 311 310 308 306 305 304 304 305 306 305 305 305 305 305 306 305 304 304 303 302 302 301 300 299 297 297 297 296 295 294 294 295 295 295 295 295 292 292 292 293
287 287 285 284 284 285 284 284 289 290 290 290 288 285 284 287 288 291 294 295 296 297 297 297 297 298 297 298 297 298 296 295 293 293 294 296 297 297 298 299 299 299 300 300 301 302 305 305 305 305 309 310 311 311 311 311 309 306 305 303 303 302 302 303 303 303 304 304 303 303 303 304 304 303 303 302 302 301 301 300 298 297 296 296 296 295 295 295 295 295 296 295 295 293 291 291 292
284 289 288 289 287 285 286 287 286 281 280 285 285 276 278 288 289 288 292 291 291 294 294 294 295 296 297 296 296 296 296 294 293 294 295 296 296 297 297 298 298 299 299 300 301 303 304 305 305 306 311 311 310 310 310 308 306 303 302 300 298 299 298 299 301 301 301 301 301 302 302 302 302 302 302 302 301 300 299 299 298 297 296 296 296 296 296 296 296 296 295 295 294 293 292 290 289
280 283 287 289 287 286 286 285 283 277 275 282 288 275 273 282 285 288 290 290 291 293 293 294 294 295 296 295 294 293 292 292 294 295 295 295 295 295 296 297 298 299 299 300 302 304 305 305 307 307 311 311 310 310 309 307 304 304 304 303 302 300 299 300 303 303 303 302 302 300 300 300 300 300 300 300 299 299 298 297 297 296 296 295 296 296 296 296 296 296 296 294 294 294 292 290 289
280 288 290 287 287 285 284 284 281 279 284 286 286 281 274 277 283 288 290 289 288 290 291 292 294 294 293 293 293 292 291 293 295 295 295 295 295 296 296 297 298 299 299 300 302 305 305 305 307 308 309 309 310 309 308 307 304 304 304 304 303 302 301 301 302 302 302 301 300 299 298 298 298 298 298 298 297 297 296 296 296 296 295 295 296 295 295 296 296 296 295 295 295 294 293 292 290
286 289 289 286 286 286 284 281 278 280 278 276 280 283 276 276 283 288 289 286 286 288 290 291 293 293 292 293 292 291 293 295 294 293 294 295 296 297 299 298 299 300 300 301 303 304 305 306 307 308 309 309 309 308 306 306 305 305 305 304 303 303 303 302 301 300 299 299 298 298 297 297 297 297 298 298 298 296 296 296 295 295 295 295 295 296 296 296 296 295 294 294 293 294 294 294 292
291 291 291 290 288 286 284 280 278 277 275 273 277 281 273 275 281 283 287 285 285 288 288 291 292 292 292 292 291 292 294 294 294 294 295 296 298 299 300 300 300 301 302 303 304 304 305 306 306 307 308 308 308 306 306 305 305 305 304 304 303 302 301 300 299 298 298 298 297 296 296 296 296 296 296 297 298 297 296 296 295 295 295 296 296 295 296 295 295 295 294 294 294 293 293 294 293
291 290 286 286 286 283 282 280 279 277 273 276 278 279 276 273 280 281 283 285 286 286 288 291 292 291 291 290 290 293 293 293 293 295 297 298 299 299 299 298 299 301 303 303 303 303 304 305 306 306 307 307 307 306 305 304 305 305 304 304 303 301 300 299 297 296 297 297 296 296 295 295 295 295 295 296 297 297 297 296 295 295 295 296 296 295 295 295 294 294 294 294 294 293 292 292 292
288 281 282 282 281 280 278 279 277 273 273 276 277 279 279 271 276 284 285 287 287 288 288 289 289 289 290 289 291 293 293 293 294 294 296 298 298 298 299 299 300 302 303 302 303 304 304 304 305 305 305 305 305 305 305 304 304 304 304 304 302 301 300 298 297 296 296 296 296 295 295 295 295 295 295 295 295 296 296 296 296 296 295 295 295 295 295 295 294 294 293 293 292 293 292 292 291
285 283 282 277 276 278 275 275 272 273 275 276 274 275 273 275 280 285 288 288 288 291 291 290 290 289 289 289 291 293 293 293 294 295 296 297 297 298 299 300 301 300 301 302 303 303 304 304 305 302 303 304 305 305 304 304 304 304 304 303 303 301 300 299 298 297 297 297 296 295 294 294 294 294 294 294 294 295 295 295 295 295 295 295 295 295 295 294 294 293 292 292 292 292 292 291 290
284 281 280 278 274 273 270 274 277 278 275 273 274 276 273 280 283 288 288 289 290 290 291 291 290 290 289 289 291 292 292 293 294 296 297 296 297 299 300 300 300 300 302 303 303 303 303 304 303 302 303 304 304 304 304 304 304 304 304 304 303 301 300 300 299 298 298 297 297 296 295 294 294 294 294 294 294 295 295 295 295 295 295 295 295 294 294 294 293 292 292 291 291 292 292 291 290
283 283 281 279 276 273 269 274 272 272 275 275 273 271 272 275 282 289 288 289 290 291 291 291 291 290 289 290 292 291 292 293 295 294 295 296 297 299 300 301 301 302 302 303 303 302 302 301 302 302 302 303 304 304 304 304 305 305 304 304 302 301 300 300 300 299 299 298 297 296 296 296 295 295 295 295 295 295 294 294 294 294 295 295 294 294 294 294 293 292 292 292 292 291 291 291 289
284 284 283 277 277 281 275 277 275 273 272 273 270 273 279 280 287 288 288 288 289 290 290 291 289 289 289 289 291 291 292 294 296 295 296 297 298 299 300 301 302 301 302 303 303 302 301 301 301 302 302 303 303 303 303 304 305 306 304 302 302 301 301 300 299 299 299 298 297 297 296 296 296 296 296 295 295 295 294 294 294 294 294 294 294 294 293 293 292 292 291 291 291 291 290 290 289
283 283 278 281 282 280 276 277 277 275 272 271 276 278 281 286 288 288 288 287 288 289 288 287 287 288 288 288 291 290 292 295 295 295 297 298 299 300 300 301 301 301 302 302 302 302 302 301 301 301 302 302 302 302 303 304 304 303 303 302 301 301 301 300 299 298 298 298 298 297 297 297 297 296 296 296 295 295 295 294 294 294 294 294 293 293 293 292 291 291 291 291 290 290 290 289 289
282 278 280 284 284 281 278 273 274 274 271 273 277 276 279 277 277 285 286 284 286 288 286 287 286 286 286 288 291 290 292 295 295 295 297 298 299 299 300 300 301 300 301 301 301 302 301 301 301 301 301 301 302 302 303 303 303 301 301 301 301 301 301 300 299 298 298 297 297 297 297 296 296 296 296 295 295 295 295 294 294 294 294 293 293 292 291 291 291 290 290 290 290 289 289 289 289
284 282 286 280 278 276 279 275 270 270 270 273 275 278 277 278 280 283 281 283 284 284 285 285 284 285 285 287 291 290 293 294 293 294 296 297 298 299 299 300 300 300 301 301 300 300 300 300 300 301 300 300 301 301 302 302 303 301 301 301 301 301 300 299 299 298 298 297 297 297 296 296 296 296 295 295 294 294 294 294 294 293 293 292 292 291 290 290 290 289 289 289 289 289 288 288 289
287 287 284 282 279 278 275 276 274 275 271 273 272 276 277 280 282 285 283 285 283 283 284 283 281 284 284 287 291 290 291 292 293 293 295 297 298 299 299 299 299 300 300 300 300 300 299 299 299 299 299 300 300 300 300 299 300 300 299 300 300 300 299 299 298 297 297 297 297 297 296 296 296 295 295 295 294 294 294 294 294 293 293 292 291 291 290 290 289 289 289 288 288 288 288 288 287
279 280 278 279 280 280 279 277 275 273 271 272 271 273 278 283 286 285 283 283 284 284 283 282 282 284 285 288 291 291 292 292 292 294 296 297 298 299 299 300 300 300 300 300 299 299 298 299 298 298 298 298 299 299 300 299 299 298 298 298 298 298 298 298 298 297 297 297 297 296 297 296 296 295 295 294 294 294 294 294 294 293 292 291 291 290 290 289 289 288 288 288 288 288 288 287 287
282 281 280 281 278 275 272 274 275 274 273 272 272 273 280 287 292 290 288 286 286 284 284 283 281 283 285 288 292 291 292 292 293 294 296 297 298 299 300 300 300 299 299 299 299 299 298 298 298 298 298 298 298 299 299 299 298 298 298 298 298 298 298 298 297 297 296 296 296 297 296 296 295 295 295 294 294 294 294 294 293 293 292 291 291 290 290 289 288 288 287 288 288 287 287 286 286
Wind_Speed
11 7 6 6 4 4 4 3 3 3 2 7 6 7 1 3 4 4 3 3 3 3 4 4 4 1 1 2 5 6 4 5 2 4 3 0 1 2 4 3 2 8 9 10 10 10 10 11 14 15 15 15 15 15 14 15 15 14 14 15 15 15 15 15 14 15 15 14 16 15 15 15 14 14 14 13 14 14 14 14 17 16 16 16 16 16 18 17 17 16 17 18 17 17 18 18 18
8 7 7 5 4 2 2 5 2 2 3 6 8 3 6 4 2 8 10 7 4 3 3 2 3 4 3 3 3 5 5 1 2 2 3 2 1 1 2 2 2 9 8 10 11 10 10 9 15 14 15 16 16 15 15 14 15 15 15 15 16 16 16 14 15 16 15 14 15 15 15 13 13 14 14 13 14 13 13 14 17 15 16 17 17 16 16 16 17 16 16 17 18 18 18 18 18
7 6 6 4 5 4 4 2 2 4 3 5 4 4 3 2 11 7 6 8 4 5 3 4 2 4 6 4 3 4 2 5 5 4 3 1 1 2 3 3 2 9 7 8 11 10 9 10 15 14 16 17 16 15 15 14 15 14 15 15 15 16 16 16 17 15 17 17 16 16 15 15 14 14 13 14 13 13 13 14 16 16 16 17 18 16 17 16 16 17 17 17 17 17 17 18 18
7 6 3 4 2 3 2 1 3 4 4 5 3 7 8 8 8 7 2 7 2 3 2 4 4 2 4 5 3 6 1 3 3 2 3 2 1 0 2 3 4 4 6 7 10 9 9 12 16 15 16 17 15 15 14 14 14 15 15 15 17 17 16 16 17 16 18 18 17 16 16 16 15 14 14 14 15 13 13 14 15 16 16 17 18 16 17 16 16 17 17 17 17 18 18 18 18
5 4 4 3 2 2 1 2 3 2 4 2 2 4 6 6 8 5 3 2 1 1 2 5 4 2 5 6 2 2 2 1 3 8 3 2 1 2 2 1 3 3 3 8 11 10 9 17 15 14 14 16 16 16 15 15 15 15 15 16 15 17 16 15 16 17 18 17 16 16 16 15 15 16 14 14 15 14 14 14 15 16 17 17 17 16 16 16 15 16 17 17 16 16 17 17 17
6 5 4 2 2 2 1 2 3 6 2 4 4 5 9 7 7 5 6 3 2 0 4 3 4 7 4 4 5 4 4 2 2 4 3 2 4 3 2 0 3 3 2 4 8 9 9 18 17 14 13 16 17 17 16 16 16 15 16 14 15 14 15 15 15 15 17 17 17 16 16 16 16 16 15 16 15 15 15 15 15 16 16 16 17 17 17 16 15 15 16 16 16 16 17 17 17
2 2 2 2 3 2 2 3 4 3 4 4 4 5 8 6 5 5 5 4 5 2 4 1 2 2 4 0 7 5 5 3 2 2 2 2 5 3 2 1 2 3 2 3 4 6 14 18 17 17 14 17 18 18 18 16 16 16 16 15 14 15 14 15 16 15 15 16 16 17 16 16 15 15 16 15 17 16 16 16 16 15 15 16 15 16 17 15 15 16 15 15 16 16 16 16 16
2 2 1 2 1 2 3 4 5 1 4 5 5 6 7 6 6 4 5 3 2 4 1 1 4 2 7 4 1 1 6 4 3 2 3 2 4 4 3 2 2 3 3 1 1 4 16 19 17 17 16 17 19 19 18 17 16 15 16 16 15 17 16 15 15 17 15 16 16 17 18 17 16 15 17 16 17 15 15 15 15 15 16 17 16 15 17 15 15 15 15 15 15 16 16 16 16
2 2 1 2 3 2 3 4 3 4 3 5 3 7 6 5 5 4 4 3 4 3 2 3 3 3 1 6 2 2 3 5 5 5 4 2 3 3 4 3 3 1 0 3 2 6 11 17 17 17 16 16 17 18 18 16 17 15 15 15 14 15 17 16 16 15 16 16 16 15 15 16 17 16 15 15 16 14 14 15 15 16 16 16 16 16 16 16 15 14 15 15 15 15 15 15 15
2 1 1 1 2 3 5 2 1 2 3 4 4 6 5 4 4 3 3 3 3 5 3 3 1 6 4 3 1 3 1 3 3 5 3 4 1 4 4 3 3 1 2 3 3 6 7 15 16 16 15 14 15 14 16 17 17 16 15 16 14 14 14 16 15 15 15 15 14 15 15 16 18 17 16 15 17 15 14 15 16 16 15 16 16 16 16 15 15 14 15 14 15 15 15 15 14
2 2 0 1 3 5 2 3 4 1 4 3 6 5 4 2 3 4 4 2 2 3 4 2 3 3 3 2 1 3 3 2 4 4 3 1 1 3 3 3 2 1 1 3 4 4 6 9 16 16 12 14 17 13 16 17 18 18 17 17 16 16 17 15 15 16 15 13 16 16 14 15 16 17 16 14 15 14 15 15 16 16 16 16 16 16 15 15 16 15 14 14 14 14 14 14 14
2 2 2 2 4 3 2 3 3 2 1 5 4 4 2 3 3 3 6 6 5 6 5 1 1 2 4 3 3 2 3 3 4 1 2 2 2 2 2 4 3 2 1 3 5 4 6 7 8 12 12 11 14 11 13 15 18 19 17 16 17 17 17 17 16 16 16 16 15 17 16 15 17 15 16 14 13 14 15 14 15 15 16 16 16 16 15 15 15 15 14 14 14 14 14 14 14
3 2 3 2 2 2 3 3 2 1 1 4 3 3 0 3 3 2 4 5 6 5 2 4 3 3 3 1 4 3 4 3 2 1 2 2 1 2 3 3 4 4 3 3 4 5 6 6 7 7 8 11 13 10 10 12 16 14 13 16 15 14 14 15 15 15 16 17 15 16 16 15 16 16 16 15 15 12 14 13 14 15 15 15 15 15 15 15 16 15 14 14 14 14 14 14 13
2 1 2 3 2 3 2 1 2 3 2 2 3 1 3 2 2 2 2 5 5 5 3 3 2 2 6 3 3 4 2 2 2 2 0 2 2 2 3 4 4 6 5 4 4 6 7 6 7 6 6 8 9 8 9 10 11 11 12 14 14 15 13 13 13 17 16 18 16 17 15 16 14 14 12 12 12 9 8 11 13 15 15 15 16 15 15 15 15 15 15 14 14 14 14 14 13
2 2 1 2 3 4 2 1 2 2 1 0 0 2 2 3 2 2 5 4 7 2 5 5 4 0 2 1 2 2 3 2 2 2 2 1 0 1 3 2 5 6 7 6 7 6 7 6 7 6 6 7 8 7 9 9 12 11 10 11 14 13 12 9 12 16 15 14 14 14 14 14 13 13 12 12 13 10 7 10 12 14 15 15 16 15 15 15 15 15 14 14 14 14 14 14 13
3 3 1 2 2 1 2 2 3 3 1 1 2 3 1 1 2 2 2 1 3 6 4 3 2 4 4 3 2 4 4 1 2 1 2 3 1 0 2 3 3 4 6 8 6 7 6 8 7 7 7 8 7 6 6 8 13 12 10 13 13 11 12 9 14 13 13 13 12 13 13 13 12 11 14 12 12 9 7 6 11 12 14 15 15 15 15 15 14 14 14 14 13 13 14 13 13
3 2 1 3 4 4 1 1 3 2 2 1 8 2 2 3 3 3 2 2 5 7 6 6 6 4 7 4 2 4 3 2 3 3 1 3 3 4 3 2 2 3 3 7 7 7 8 8 9 7 7 8 8 8 7 7 11 14 12 12 14 15 12 13 15 14 11 10 10 11 13 9 9 9 10 9 9 7 8 9 10 11 12 14 15 15 14 15 14 14 13 13 13 13 12 13 12
2 2 2 4 4 1 1 2 1 1 2 2 3 4 3 4 3 3 5 4 8 7 8 9 10 9 6 2 5 4 3 2 3 2 1 3 4 3 5 4 4 5 5 5 7 9 9 9 10 9 8 9 9 7 6 6 7 12 11 9 9 12 11 15 13 10 9 6 12 10 8 7 7 8 8 10 7 8 7 11 10 9 11 13 14 15 14 14 13 14 13 13 13 12 11 5 4
2 3 3 5 3 1 1 1 1 1 1 4 3 3 3 3 3 2 5 4 5 7 8 7 8 7 8 3 5 1 1 1 1 0 2 2 3 4 2 6 5 4 3 4 6 7 9 9 9 9 8 9 11 9 7 8 9 7 9 10 9 10 11 12 11 11 7 8 9 8 7 6 7 6 7 8 8 10 9 10 9 10 11 11 11 14 13 12 11 14 14 13 12 11 5 3 3
1 1 3 1 2 3 1 2 2 3 3 2 4 3 4 4 3 2 5 8 4 8 9 5 8 3 3 2 3 4 2 1 0 1 1 2 3 3 4 3 7 7 7 6 8 7 8 9 11 9 11 10 8 8 9 9 8 7 7 8 8 9 10 9 10 10 8 9 9 7 7 6 6 7 12 16 12 7 9 14 15 15 14 10 12 9 14 18 18 15 15 13 7 2 4 5 3
1 1 3 2 2 3 3 2 4 3 3 1 3 4 5 4 2 0 2 8 10 8 10 2 3 4 5 4 4 2 1 1 1 2 2 3 3 3 4 5 3 6 8 8 6 8 9 9 10 10 10 11 12 9 9 9 9 8 7 7 9 9 8 9 9 9 9 9 9 7 8 6 8 8 7 7 7 8 8 7 8 7 7 7 10 8 7 8 8 6 5 4 1 2 4 4 3
1 4 4 3 2 1 3 5 5 3 1 2 3 4 4 3 3 5 5 8 11 3 2 3 4 5 6 5 3 2 1 3 3 3 3 3 2 3 3 4 4 4 6 6 9 8 8 8 10 10 11 12 11 10 10 9 11 8 9 9 8 9 9 8 9 9 9 9 7 8 8 9 9 8 7 7 7 8 9 7 8 7 7 7 6 7 6 7 6 5 3 2 2 3 3 3 3
2 5 7 1 1 2 1 1 4 1 0 2 2 3 4 3 6 5 7 13 12 4 5 6 4 2 3 3 3 3 4 5 5 5 4 4 4 3 3 4 4 4 0 5 6 7 8 9 10 10 10 11 13 12 11 11 9 8 8 8 9 8 9 10 9 9 9 10 7 8 8 9 8 8 7 8 7 7 7 8 8 7 7 6 5 6 7 6 4 5 3 4 5 4 4 4 4
1 3 2 3 0 4 4 3 3 1 3 3 3 4 4 3 7 1 8 13 12 8 6 4 4 4 2 4 4 5 5 5 5 5 5 5 5 6 5 5 4 4 4 3 4 4 6 9 10 11 10 12 14 13 12 11 10 11 10 8 7 7 8 11 10 10 9 8 7 9 9 8 9 9 7 8 7 6 7 8 7 7 6 6 6 6 7 6 6 5 5 4 4 4 3 4 4
3 4 3 1 1 3 4 4 3 2 3 4 4 4 7 6 6 5 15 14 7 8 5 5 3 3 4 4 5 5 6 5 6 6 5 5 5 6 5 4 4 4 4 4 3 5 6 7 8 9 9 10 9 11 12 10 9 9 10 11 10 7 6 8 11 11 10 7 8 9 9 9 8 9 7 8 7 7 6 8 7 6 6 7 7 6 6 6 6 6 6 4 4 4 3 4 4
4 5 3 4 5 4 3 3 2 3 3 1 2 9 9 8 9 14 22 17 12 6 5 4 4 4 6 6 6 6 6 7 6 6 6 5 5 5 5 4 3 4 5 5 4 4 5 7 8 10 11 9 11 13 10 11 13 13 12 11 11 11 8 6 9 10 9 9 9 9 9 9 9 8 8 8 7 7 6 6 7 7 6 7 7 7 6 6 6 6 4 4 4 4 4 3 4
0 4 5 7 9 5 3 3 2 2 3 1 3 8 7 4 5 9 5 12 6 3 5 4 5 6 7 6 6 6 7 7 7 5 4 4 4 4 4 4 4 5 5 5 5 5 5 6 8 10 11 9 7 8 10 12 12 12 12 12 11 12 11 8 7 10 9 9 10 10 9 9 9 8 8 8 7 8 7 7 7 7 6 6 7 7 6 6 6 6 5 5 4 5 4 4 5
3 3 7 9 12 7 5 2 3 1 3 3 5 13 10 7 3 14 12 4 7 6 4 5 6 7 7 7 8 6 6 5 5 4 6 5 5 4 5 7 6 7 6 5 4 4 4 8 8 9 10 11 11 14 14 13 12 12 12 11 12 12 12 10 9 9 10 9 10 9 9 9 9 9 9 8 9 9 8 7 6 7 6 6 7 7 7 6 6 5 5 4 4 4 4 5 4
1 3 5 6 3 4 6 6 3 4 2 2 3 9 12 6 8 19 12 4 5 4 5 6 7 7 7 7 6 5 5 5 4 5 5 5 4 5 4 1 1 1 2 2 4 4 4 7 7 8 8 8 11 12 9 10 9 11 11 11 11 12 12 12 11 10 10 10 10 10 10 10 9 9 8 9 9 8 8 8 7 6 6 7 7 7 8 7 6 5 4 4 5 4 4 4 4
1 2 3 6 4 4 5 4 3 3 1 0 2 6 5 5 16 9 5 7 5 5 5 6 6 7 5 5 5 4 4 5 5 6 6 6 6 5 4 4 3 2 2 3 4 3 3 3 5 5 7 8 10 8 11 11 12 12 12 11 11 12 11 11 12 11 11 10 10 10 10 10 10 9 10 9 8 8 8 8 8 7 7 7 7 7 7 6 6 6 4 6 5 5 5 4 5
2 2 2 4 3 2 3 3 5 1 1 2 1 2 12 10 6 8 4 7 7 6 6 5 5 5 5 5 5 5 5 6 6 7 7 7 6 5 6 5 4 4 4 2 3 4 4 1 5 4 6 7 8 8 9 10 11 10 11 11 11 12 11 11 10 10 11 11 10 9 9 9 10 10 11 10 9 8 8 8 8 7 8 8 7 6 7 6 6 6 6 6 5 5 4 4 4
3 1 3 3 5 1 2 4 5 3 1 2 1 4 9 8 7 4 5 5 5 7 6 6 5 5 5 5 6 6 6 6 7 7 7 7 7 5 6 6 6 5 4 3 2 1 4 4 2 5 6 7 8 9 9 9 11 14 12 12 12 13 12 11 11 10 11 10 11 10 10 10 10 11 11 10 9 8 8 8 8 8 8 7 7 6 7 7 6 6 5 6 6 5 5 4 4
3 5 4 5 2 3 1 4 2 2 0 3 3 6 10 12 1 5 5 5 6 8 8 7 5 5 5 5 5 5 5 6 6 7 8 7 7 7 6 6 6 7 7 7 6 5 4 4 4 3 6 8 9 9 9 7 9 8 10 12 13 13 12 11 11 10 10 11 10 10 11 10 10 10 10 10 10 9 8 8 8 9 7 8 7 6 6 6 6 6 5 5 5 5 5 5 4
1 3 4 3 6 4 4 1 3 1 2 2 4 4 11 17 17 15 10 9 12 13 11 7 6 6 6 6 7 7 7 6 7 7 8 9 8 9 8 8 7 6 6 7 7 7 7 5 5 5 4 8 8 9 9 9 4 4 10 10 11 12 11 11 9 10 10 10 10 11 11 10 10 11 10 9 9 9 8 8 9 9 8 8 7 6 6 6 6 6 6 4 6 5 5 5 4
2 4 5 6 5 5 7 5 1 0 3 5 5 9 16 19 18 15 12 9 8 9 8 7 5 5 7 7 7 6 6 6 6 5 7 9 9 9 9 8 6 5 4 5 5 6 6 7 6 5 5 7 8 8 9 8 8 8 4 8 10 10 9 9 10 9 10 9 10 11 11 10 11 11 10 10 9 8 9 9 9 9 8 8 7 7 6 6 6 5 5 5 5 5 5 4 5
3 3 4 5 7 8 5 1 1 2 2 5 7 11 13 15 15 12 8 6 8 9 7 6 5 5 6 6 6 5 5 5 4 4 3 2 2 2 5 4 5 5 5 5 5 4 4 4 5 6 6 8 8 9 8 6 6 6 7 4 7 10 11 11 9 10 9 10 11 12 11 11 11 11 11 10 10 9 9 9 9 8 8 8 8 8 7 7 7 7 6 6 6 5 5 6 5
2 2 4 7 7 10 6 2 2 0 1 8 11 10 14 17 18 15 11 7 8 8 8 5 5 6 7 7 6 5 5 5 4 2 1 1 1 2 2 5 5 6 5 5 5 6 5 6 5 7 7 6 9 9 8 8 7 5 5 8 10 8 9 10 11 10 9 10 12 12 12 11 11 11 10 10 10 10 9 9 9 8 8 8 8 7 6 7 6 6 7 5 7 7 4 5 5
1 3 4 7 4 9 5 0 2 2 0 4 4 12 18 18 16 14 11 8 10 8 7 6 7 8 8 8 8 8 6 2 3 3 2 3 3 2 1 1 2 4 5 5 7 8 8 8 8 7 7 7 10 11 10 10 9 9 9 7 5 7 9 11 11 9 10 9 11 11 10 10 12 11 11 11 10 10 9 9 9 9 9 8 7 6 6 7 7 6 6 5 4 6 4 6 6
2 3 4 4 7 4 4 3 2 1 0 9 4 8 17 20 18 15 13 9 7 6 6 6 8 9 7 7 5 3 0 1 2 2 4 5 6 5 4 4 5 5 5 6 9 8 7 8 8 8 7 8 9 11 12 11 9 9 10 8 10 5 2 7 11 11 10 10 9 9 10 10 10 10 11 11 11 10 10 9 9 8 8 8 8 7 7 8 7 7 7 7 7 3 4 4 6
3 3 1 6 2 4 5 0 2 2 1 9 8 12 16 19 14 14 14 8 5 4 4 5 4 5 4 5 3 0 1 1 2 4 4 4 4 5 6 6 5 5 6 4 4 5 6 6 5 7 8 6 7 10 12 11 12 11 7 8 5 3 5 6 8 10 9 9 8 7 8 10 9 10 11 11 10 10 11 11 9 8 8 7 8 8 8 8 7 7 7 6 6 7 3 1 0
5 6 5 6 4 1 1 4 7 8 11 6 7 10 10 10 7 4 5 4 3 2 2 4 5 5 6 5 4 3 0 2 3 3 4 4 4 4 6 6 5 6 6 6 5 5 4 4 5 6 6 7 8 10 12 11 10 8 8 9 8 9 6 6 10 9 10 10 9 8 8 10 10 9 10 10 10 10 10 10 10 9 9 8 7 7 8 8 7 6 6 6 7 7 7 3 1
2 5 4 0 3 4 5 6 8 6 2 1 3 8 4 1 5 3 3 3 4 4 5 7 6 8 9 6 1 3 4 4 4 4 4 4 3 2 4 5 5 6 7 7 5 4 4 5 5 5 7 8 9 11 12 10 11 12 11 11 9 7 8 8 11 15 12 12 12 7 5 6 9 8 8 9 9 9 9 9 10 10 10 8 8 7 6 6 6 7 5 6 5 4 7 6 4
2 1 2 4 3 2 3 5 6 6 4 1 1 0 9 5 9 10 4 5 8 5 8 8 7 5 1 3 4 3 4 4 4 3 4 5 5 4 4 6 7 7 7 6 6 6 6 7 6 6 7 9 9 11 12 11 11 12 15 14 13 11 11 7 5 7 13 12 10 10 8 5 6 8 8 8 8 8 8 8 9 9 9 8 8 8 8 8 7 7 5 6 5 6 6 5 7
3 1 1 2 2 3 3 2 1 6 4 10 6 6 4 9 9 9 7 7 4 4 5 4 1 1 4 4 4 4 4 4 4 4 5 5 6 6 7 7 7 8 7 7 6 6 7 7 7 7 6 9 11 10 11 13 13 12 12 13 12 11 12 12 9 8 6 9 12 11 8 6 6 5 7 7 8 8 8 8 8 9 9 8 8 7 7 7 6 5 6 5 5 5 5 6 6
1 1 4 1 0 1 0 1 3 4 4 8 2 5 0 6 8 2 4 3 4 4 1 0 1 3 3 2 2 3 4 4 4 4 5 5 7 8 9 9 7 7 7 7 8 7 7 6 7 7 9 10 10 13 12 12 13 13 13 11 11 9 9 7 7 7 10 11 12 10 9 8 7 6 5 7 6 7 7 7 8 8 8 8 7 6 6 7 8 8 7 7 6 5 5 4 5
2 1 1 1 1 1 2 1 3 3 1 7 3 4 2 8 4 4 1 3 4 1 1 1 1 2 1 0 2 3 4 3 3 4 5 7 8 9 9 10 9 8 8 6 7 7 6 6 6 7 10 9 12 13 13 13 13 13 12 12 14 10 8 8 8 8 9 10 13 12 9 9 8 8 6 6 6 6 7 7 7 8 8 7 6 6 7 7 7 7 7 6 6 6 4 5 5
1 0 2 2 4 2 1 1 2 1 2 6 1 1 0 7 4 5 3 3 1 3 2 0 1 2 2 2 3 4 4 4 4 5 6 8 9 10 8 9 8 7 4 4 7 6 6 5 5 6 8 9 13 15 14 13 12 12 11 12 13 13 13 12 10 8 9 10 12 12 11 9 7 9 8 7 7 6 6 6 6 6 6 7 7 7 7 7 7 7 6 5 5 7 6 5 5
2 0 1 5 1 3 1 0 1 1 6 1 3 1 3 1 8 6 4 5 3 1 1 2 2 1 2 2 3 3 2 4 4 4 6 7 9 9 9 10 7 7 4 5 4 4 4 4 4 6 8 10 11 13 13 12 11 10 11 13 13 13 15 13 14 14 11 13 12 12 9 9 9 9 8 9 8 8 7 6 6 6 7 7 7 6 6 6 6 6 6 6 5 4 5 5 4
2 1 0 2 3 0 1 1 2 4 7 0 2 3 4 10 14 10 12 7 0 2 1 1 1 2 2 1 4 1 3 4 4 4 5 7 7 9 9 9 5 4 2 2 3 3 4 4 5 8 9 8 9 11 12 12 11 10 10 12 12 12 13 14 13 12 12 13 12 12 12 11 10 10 9 10 9 11 8 8 7 7 7 7 7 7 6 6 6 6 6 6 5 5 5 5 5
4 2 1 0 1 1 3 4 3 1 1 3 0 2 5 8 8 12 15 10 2 1 2 1 0 0 1 2 4 1 1 3 3 3 5 6 7 9 8 6 5 3 2 0 1 2 3 6 7 10 9 9 10 9 10 10 10 10 10 10 11 11 12 12 11 12 11 9 11 13 13 12 12 12 11 10 10 10 8 7 7 7 6 6 7 7 7 7 6 6 6 6 6 5 5 5 4
5 1 2 2 3 1 2 2 2 3 4 1 4 1 7 0 5 1 5 5 3 4 3 3 1 2 0 1 2 2 2 3 3 3 4 5 7 9 7 5 5 5 3 4 4 5 6 7 8 10 10 8 9 10 9 9 8 9 10 10 10 10 11 10 10 10 11 10 8 9 8 8 8 8 9 8 9 9 9 8 7 7 7 7 7 7 7 7 6 6 5 5 5 5 4 5 4
2 2 5 4 4 0 6 1 3 3 3 5 1 6 3 6 2 2 4 4 3 4 3 2 2 2 1 2 2 1 0 2 2 3 4 6 6 6 6 5 3 4 4 4 4 4 5 6 6 7 11 10 10 8 7 8 7 7 10 11 11 10 9 9 8 7 7 8 9 10 9 8 7 8 8 9 9 9 9 8 8 7 7 7 6 6 7 6 6 6 5 5 5 3 5 4 4
3 4 2 3 0 2 2 2 0 1 3 8 3 7 7 5 7 5 3 4 4 3 4 2 1 0 1 3 2 1 1 1 3 3 4 6 6 6 5 6 5 4 4 4 4 5 4 5 7 7 5 5 8 10 9 8 8 7 10 11 11 11 11 11 10 11 10 8 8 8 8 8 8 8 8 9 10 8 8 8 8 7 7 7 7 6 7 6 6 6 6 6 6 4 5 5 4
4 1 3 1 1 3 3 2 1 2 4 5 4 9 8 4 8 0 1 1 4 5 2 1 3 1 2 4 3 2 0 0 3 2 3 3 5 5 5 5 6 6 5 6 6 5 5 5 6 7 6 5 4 7 9 8 9 8 9 10 11 11 9 9 10 11 10 9 8 8 8 8 8 8 8 8 9 10 9 9 8 7 6 6 7 6 6 6 6 6 6 6 5 5 5 4 4
1 1 0 1 1 0 0 2 4 2 4 5 4 8 6 5 9 1 6 5 6 5 2 1 2 2 3 5 2 2 1 1 3 2 3 3 4 5 4 3 3 5 5 5 5 5 5 5 5 6 8 6 6 4 5 5 7 7 7 9 10 10 9 9 9 10 10 10 10 9 9 8 8 8 9 10 10 9 9 8 8 7 7 7 7 6 6 6 6 6 5 5 5 6 6 5 4
1 0 1 0 1 2 4 3 2 1 6 4 4 1 10 5 6 8 7 9 6 5 2 5 4 4 4 5 3 3 2 1 4 1 2 3 3 3 4 4 4 4 5 5 5 5 6 5 6 6 6 6 6 8 7 7 6 7 7 7 7 8 9 10 10 11 10 10 10 10 10 10 9 8 9 9 9 10 10 9 8 8 7 7 7 7 7 7 6 6 6 6 6 6 6 6 5
2 1 1 0 1 1 1 1 3 3 2 2 4 9 7 3 3 4 7 8 8 5 5 6 5 5 5 6 3 4 2 2 3 3 3 2 2 2 2 3 2 2 4 4 4 5 5 5 6 6 7 6 6 5 7 7 7 7 8 9 8 8 9 9 10 10 10 10 9 9 9 9 9 9 10 10 10 10 10 9 9 8 8 8 8 8 7 7 7 7 6 6 6 6 6 5 5
10 11 8 11 9 3 2 7 2 0 2 4 1 10 13 10 3 7 5 7 8 7 5 6 5 6 5 5 4 4 4 4 2 3 3 3 2 2 1 2 2 2 4 4 4 4 5 5 5 6 6 6 6 6 6 7 7 8 8 8 9 8 9 9 10 10 10 10 9 9 9 10 9 9 10 10 10 9 9 9 9 8 8 8 8 8 8 7 7 7 6 5 6 6 5 5 5
Wind_Direction
296 292 298 295 283 253 278 231 251 176 239 247 263 248 60 49 83 159 181 144 161 32 33 318 333 162 325 324 320 335 334 318 147 172 207 238 29 196 300 182 152 142 149 141 147 153 159 179 163 166 165 166 165 161 157 156 155 156 155 151 147 154 155 157 160 139 145 155 147 149 141 140 136 136 136 134 130 124 126 128 115 117 110 110 108 108 106 106 106 109 104 104 103 104 104 104 104
296 305 283 264 254 264 234 187 251 252 203 262 250 272 83 119 170 44 60 47 38 40 334 322 276 287 226 240 287 335 305 267 31 84 107 47 80 329 273 227 203 152 162 144 147 153 157 182 162 170 168 166 164 166 160 157 156 158 154 154 151 149 158 160 149 144 145 153 149 149 142 133 137 138 142 139 131 134 131 129 118 121 116 115 115 114 111 109 110 107 103 104 106 104 104 105 105
298 297 297 259 227 223 292 300 259 292 268 257 55 53 196 347 61 51 32 54 356 15 3 281 274 249 259 184 258 219 237 68 54 86 55 359 134 248 235 210 271 156 172 142 148 157 156 170 160 170 172 167 167 164 158 162 159 163 156 154 157 153 160 165 148 153 149 151 153 148 141 138 141 138 141 141 133 133 132 127 121 123 118 121 117 117 109 109 106 108 104 105 107 105 105 105 106
274 261 269 294 278 200 270 210 258 269 291 298 77 17 37 48 60 67 52 28 8 322 353 335 327 51 299 257 253 158 209 51 21 36 128 171 52 78 178 214 286 179 177 142 151 156 162 163 164 171 174 171 168 165 165 163 163 167 160 161 158 156 166 163 148 152 155 153 151 147 143 143 140 140 138 139 131 132 131 132 126 125 123 120 113 115 110 114 116 113 111 105 107 109 108 106 106
262 251 227 279 289 231 256 235 263 266 277 344 42 78 42 50 64 24 63 148 55 352 15 336 291 62 334 295 324 308 0 298 48 39 90 77 260 127 140 269 311 210 201 148 152 161 161 162 162 167 170 175 167 164 165 165 167 168 165 160 163 167 157 165 154 154 153 150 149 148 146 142 141 140 140 139 134 131 126 129 130 127 124 118 117 116 113 109 110 114 109 110 108 109 108 107 106
237 263 193 241 284 48 275 278 229 228 9 348 342 44 56 40 26 1 331 11 56 155 63 280 10 331 332 302 1 72 318 304 28 75 351 71 75 134 137 210 292 222 233 151 156 169 149 162 157 163 169 178 168 167 164 168 170 169 165 165 171 160 163 161 155 160 153 153 150 150 148 147 146 142 142 141 136 132 130 134 137 131 125 121 115 114 114 116 116 113 111 113 113 112 112 110 110
294 243 208 231 268 241 263 267 276 308 46 349 25 359 37 26 27 345 324 340 115 320 151 89 287 323 244 281 92 57 25 36 7 24 20 335 135 114 165 208 273 210 209 168 162 158 150 156 160 159 173 181 169 169 163 171 173 173 165 167 178 146 169 164 161 162 159 150 154 151 149 147 143 145 138 138 134 139 136 136 137 134 126 119 119 121 115 117 119 116 117 115 114 112 112 111 111
249 283 146 233 268 165 212 234 259 261 97 45 52 28 19 19 16 341 331 311 333 341 307 320 99 355 282 326 292 341 31 35 94 98 57 48 115 136 172 213 257 213 189 119 237 135 156 158 161 162 172 182 175 169 168 173 167 177 168 170 174 156 166 166 169 164 160 154 160 157 156 149 145 148 139 146 138 142 140 137 138 129 125 124 121 120 115 116 116 119 119 118 115 113 112 112 112
224 227 17 291 251 190 244 238 257 84 47 56 29 67 47 31 335 354 314 330 302 312 8 334 39 329 39 337 20 120 47 8 62 74 65 39 105 139 158 218 220 179 104 104 22 142 159 163 162 161 174 180 183 173 167 171 160 179 176 168 167 163 158 164 172 161 154 161 163 155 151 149 143 148 144 143 139 144 145 139 138 132 131 126 125 122 117 116 118 119 119 118 115 113 110 111 112
247 265 230 274 331 265 231 204 156 94 39 64 60 41 32 12 348 315 325 311 333 317 297 5 117 242 297 292 160 101 90 1 37 57 54 61 54 143 155 226 213 135 161 95 95 157 157 162 163 162 175 176 179 179 166 168 161 169 184 157 168 164 161 164 172 154 161 163 155 154 153 154 145 145 144 151 141 143 146 137 135 136 132 126 126 124 119 118 115 120 119 116 115 112 114 113 112
235 176 275 268 224 246 350 357 10 123 105 113 91 80 56 324 343 305 292 9 317 306 325 126 269 14 335 265 75 175 64 63 47 36 35 64 94 165 166 188 243 153 161 116 122 146 156 162 164 165 173 175 169 185 169 164 162 170 180 162 164 164 168 167 167 158 158 161 153 153 159 156 148 146 143 145 133 143 144 135 139 134 131 127 128 121 122 120 116 114 118 119 114 113 116 116 114
267 183 147 276 287 360 7 359 300 37 359 110 101 49 14 342 297 319 347 333 344 311 294 356 93 349 303 307 129 223 97 44 74 42 322 69 107 133 191 161 202 175 146 117 126 145 155 160 161 168 167 167 166 187 173 167 161 173 178 166 168 168 171 166 164 159 153 156 156 152 157 156 144 142 138 135 136 150 138 136 141 137 132 131 129 125 126 121 119 118 120 119 116 117 117 115 114
263 358 257 258 284 330 352 267 341 326 280 60 83 85 4 19 323 347 333 321 286 293 321 57 16 313 264 256 98 144 66 355 72 78 327 25 126 152 171 168 179 177 164 124 133 148 157 162 162 169 163 157 167 183 172 165 168 179 165 165 165 165 173 168 161 155 152 149 162 149 153 156 144 142 136 137 139 153 141 143 144 138 135 134 129 127 129 125 119 118 117 118 119 118 117 114 111
308 7 343 278 337 245 228 305 255 23 34 149 76 64 47 319 348 13 310 281 297 287 81 311 332 350 267 241 195 136 142 130 25 46 358 355 98 210 200 162 162 166 175 159 169 150 161 167 165 162 151 160 163 167 157 166 175 177 171 162 160 165 173 170 163 150 152 152 163 154 157 146 142 135 125 127 126 131 141 138 135 143 134 132 130 132 131 126 123 121 118 119 119 120 116 113 114
305 359 287 257 271 249 65 262 8 331 100 134 331 360 7 303 26 21 288 287 271 341 349 325 264 264 240 251 136 144 122 94 75 346 359 324 335 176 211 188 162 175 177 183 173 167 169 168 164 159 150 157 164 167 158 172 172 171 167 145 150 163 169 169 147 145 149 152 152 156 149 137 132 124 118 116 122 136 144 133 132 141 138 135 133 135 131 129 125 120 119 123 121 121 118 118 115
300 333 241 278 265 330 147 269 115 257 117 77 212 100 308 295 113 268 257 40 286 306 301 275 184 224 272 294 0 105 102 102 107 50 0 281 175 170 204 187 174 190 183 178 175 160 173 178 170 163 160 158 154 160 164 170 165 160 144 145 147 155 165 154 138 134 142 144 145 141 137 133 126 119 114 107 111 125 129 124 134 141 143 139 136 139 135 129 125 122 126 123 122 121 122 119 115
281 285 270 217 264 204 102 282 31 286 309 86 190 88 3 300 313 274 38 159 265 261 265 249 249 229 244 249 77 95 89 80 62 48 305 308 189 165 170 209 183 194 194 186 185 167 192 188 175 166 169 157 152 157 166 174 162 155 149 150 148 161 170 135 136 137 141 134 142 135 128 124 120 119 114 112 104 100 88 106 115 139 143 139 138 138 135 130 131 126 128 125 123 118 119 119 112
302 238 240 264 257 9 57 2 24 35 299 323 358 22 349 297 320 314 344 281 256 265 240 240 233 245 253 245 85 84 83 40 48 3 3 304 306 192 167 183 182 204 203 186 197 180 179 191 180 174 169 162 153 157 162 171 170 157 152 152 150 159 143 137 136 141 143 125 137 129 123 127 126 124 119 109 105 102 101 106 118 128 134 140 142 133 136 132 133 131 130 123 122 120 92 51 68
261 289 272 258 359 83 272 49 12 347 299 352 323 346 325 286 4 324 310 258 281 290 280 271 263 229 219 153 106 119 67 55 23 2 260 278 282 293 238 163 187 176 193 215 218 194 186 183 185 179 170 162 158 160 159 163 167 166 154 148 142 142 142 141 141 144 146 137 138 131 128 134 128 117 118 105 102 97 97 90 98 121 130 138 136 133 129 126 125 139 126 121 118 118 107 102 82
235 329 282 278 350 327 8 60 48 49 11 325 330 313 328 286 292 275 253 284 275 270 272 283 253 237 126 125 141 168 133 304 277 271 263 250 264 265 285 233 171 187 192 203 212 211 194 187 184 174 177 166 156 163 161 169 169 157 154 150 142 141 146 145 144 146 147 145 145 141 133 139 112 103 107 109 105 98 92 84 83 80 77 78 92 108 104 82 84 96 117 121 116 82 118 112 99
26 262 240 354 360 12 65 53 75 63 48 334 293 308 290 272 279 268 287 311 273 238 247 234 344 342 320 330 327 37 22 258 268 261 263 249 226 250 264 286 282 194 189 185 200 216 199 195 187 182 181 165 167 171 169 168 166 156 156 153 148 146 147 145 146 146 149 153 151 143 142 116 119 122 120 114 117 116 103 103 92 86 90 89 85 88 86 85 78 85 86 92 59 51 97 123 128
344 246 299 312 341 291 63 67 84 78 332 273 265 289 268 332 286 241 226 225 256 208 39 6 2 334 322 306 297 4 311 255 239 250 250 260 264 250 269 289 286 285 174 181 197 204 201 194 191 188 181 179 175 168 170 166 159 161 161 160 155 152 147 147 146 148 154 158 155 146 130 128 130 130 132 123 122 119 114 112 106 107 108 104 93 96 86 89 91 100 106 100 74 46 64 84 103
270 249 240 350 328 290 29 46 126 196 280 256 286 260 329 285 280 248 246 231 247 237 293 312 306 343 299 315 302 270 244 233 231 235 237 254 253 252 241 236 267 283 214 217 199 197 192 196 198 193 185 177 174 174 167 164 172 157 160 162 156 161 150 148 149 151 159 161 152 144 134 138 136 135 137 132 129 126 121 116 121 123 122 117 108 104 103 108 119 117 104 82 74 63 53 50 55
235 274 6 277 64 248 324 319 39 291 204 247 256 311 265 280 290 265 243 241 247 253 246 261 284 258 213 222 228 228 230 231 239 235 240 246 247 243 228 229 237 250 252 256 225 210 189 193 190 189 185 186 178 174 172 170 163 161 162 157 155 167 158 152 150 154 158 158 141 143 141 143 143 142 144 138 139 134 130 124 129 131 128 116 112 110 116 121 116 104 91 86 93 91 88 70 60
225 245 269 300 76 256 274 280 284 326 274 257 273 270 248 236 242 313 268 262 253 257 238 238 183 228 252 242 235 238 243 247 241 238 231 237 247 252 247 226 222 235 251 232 219 209 198 203 194 197 192 190 168 176 177 169 157 159 163 160 157 155 164 160 152 152 157 143 143 141 148 147 147 146 145 141 144 134 126 130 135 125 117 117 117 112 118 119 110 111 113 128 115 103 86 87 96
200 253 360 286 277 280 256 243 228 239 261 198 242 246 257 251 268 258 257 271 264 241 231 183 177 218 235 242 245 242 241 238 238 237 234 226 227 255 270 251 223 240 236 245 226 216 190 193 200 196 197 195 189 177 173 167 171 168 170 166 155 151 159 157 149 153 148 145 151 152 152 151 151 150 142 142 142 128 124 120 117 117 118 123 120 123 125 119 125 128 132 120 114 104 95 99 89
9 312 319 301 278 293 281 243 246 253 269 235 240 271 263 238 181 282 233 242 240 162 177 171 206 228 232 232 238 242 240 239 239 240 255 235 224 222 253 255 241 240 242 238 234 221 183 182 201 202 200 190 190 170 173 182 174 169 163 161 162 158 153 151 153 151 147 148 153 153 153 153 148 146 140 143 134 133 124 117 120 122 126 130 127 127 128 127 126 126 126 124 115 113 129 116 95
286 346 312 283 268 245 250 253 256 15 264 207 240 271 264 240 197 246 256 90 132 160 187 211 214 231 234 233 229 232 230 229 231 218 234 238 226 212 232 227 227 226 230 245 242 232 189 184 193 200 206 191 188 190 185 176 175 166 166 164 161 155 153 154 155 155 152 150 151 152 152 151 146 142 138 133 139 141 137 128 128 129 136 124 119 119 119 113 111 115 120 129 122 122 113 101 112
306 20 316 287 261 255 213 216 205 156 237 150 262 285 280 204 218 237 242 183 156 177 206 213 228 235 237 241 239 224 222 215 220 219 216 219 217 215 234 265 308 321 300 263 236 230 230 181 189 199 190 186 201 192 187 177 171 160 170 166 159 156 160 158 158 160 157 154 155 155 155 150 146 143 140 139 141 144 143 137 133 132 126 117 113 114 108 108 106 102 96 101 105 105 103 115 108
22 237 237 314 263 266 206 160 144 108 232 56 320 330 303 200 224 246 223 166 174 192 225 231 234 228 228 234 230 223 216 210 212 202 199 197 204 200 197 207 202 198 230 283 319 288 258 136 188 179 189 193 201 205 190 180 174 179 167 164 163 158 161 162 160 160 158 156 157 157 154 151 147 144 142 142 144 145 145 137 137 132 123 117 118 116 115 119 121 120 133 111 120 121 129 136 113
240 127 182 249 306 253 101 159 138 217 98 187 34 282 291 294 259 223 177 163 182 216 229 252 260 247 225 229 224 223 224 208 211 205 203 195 193 189 188 199 186 189 193 221 256 284 323 287 152 184 183 194 190 188 209 193 173 172 168 168 163 162 163 162 161 158 157 156 155 155 153 150 147 144 144 145 147 149 146 138 128 127 124 123 123 128 127 127 129 142 147 134 146 142 150 143 129
245 359 274 204 179 286 225 166 158 202 156 146 106 245 258 290 307 178 157 177 196 234 245 245 250 252 228 217 217 215 222 217 212 210 204 196 188 197 200 203 189 182 181 185 193 209 266 292 207 182 181 197 193 195 207 196 191 177 174 172 166 166 161 163 162 159 156 155 154 153 154 150 148 147 146 146 143 150 146 133 128 126 129 128 131 136 131 136 141 150 164 150 147 144 123 118 126
212 170 292 302 300 259 191 189 85 55 307 185 180 247 311 298 102 99 177 191 217 232 238 238 236 250 237 221 225 223 219 217 213 205 208 202 195 195 207 207 194 186 182 187 186 195 202 221 266 236 184 193 194 193 203 212 184 177 177 173 169 167 165 163 161 156 155 154 151 153 154 150 150 148 149 147 145 148 143 135 133 135 137 134 138 137 136 139 146 154 165 151 134 135 129 132 128
231 209 250 296 299 330 297 33 305 158 123 274 207 237 245 265 280 281 277 271 270 264 260 249 233 237 226 224 216 210 210 213 213 207 209 204 203 200 202 205 205 197 194 187 190 187 197 200 204 223 211 190 191 192 194 201 184 194 180 173 172 169 167 156 152 150 157 157 152 153 153 149 149 151 151 148 146 146 141 135 137 142 138 134 136 141 142 141 148 151 153 144 135 134 141 142 131
289 332 321 305 313 288 274 285 210 58 196 227 261 256 266 270 275 273 262 250 246 254 260 258 241 235 226 217 217 213 208 208 216 208 204 201 206 209 200 197 199 202 197 205 204 199 193 196 202 213 218 185 187 191 191 188 182 178 174 175 171 165 158 153 153 155 153 151 153 150 149 149 149 150 149 145 145 142 137 137 142 146 137 138 141 145 144 146 150 147 141 138 135 144 144 132 124
284 315 283 294 295 295 288 321 191 275 297 281 269 270 277 278 279 276 273 268 257 258 253 232 219 239 247 231 224 222 223 232 226 221 216 200 200 199 199 182 192 193 193 198 210 217 213 218 204 206 216 185 185 185 183 171 153 151 163 173 176 172 162 153 158 156 155 155 156 151 152 152 152 150 148 145 139 135 135 143 144 146 141 142 148 150 154 155 160 149 151 149 138 120 112 111 121
344 285 267 259 264 277 275 286 117 176 275 247 253 264 278 283 282 284 280 269 253 252 245 224 212 226 231 236 234 229 226 230 220 206 83 57 43 326 184 188 196 195 189 187 199 207 210 210 212 219 216 193 181 179 178 166 160 144 155 181 179 168 161 155 157 155 161 159 156 154 152 152 151 149 147 142 141 136 139 144 146 149 145 146 149 158 153 153 160 154 148 154 141 134 125 131 147
257 268 271 279 248 273 279 311 150 91 4 278 297 289 277 277 282 282 285 268 256 243 233 221 221 218 223 222 224 224 224 200 63 15 345 347 327 289 325 303 245 233 223 203 201 208 206 207 211 221 219 215 186 179 171 175 171 172 166 174 171 175 162 157 158 160 160 155 155 155 151 151 152 151 149 144 140 142 144 147 152 154 148 148 148 149 146 150 157 151 148 140 151 141 133 151 170
221 215 262 288 272 250 277 87 136 123 143 267 253 280 285 285 282 287 274 259 244 234 205 215 216 222 222 219 227 238 319 345 345 4 14 358 342 336 352 334 314 294 278 237 225 215 209 206 205 209 217 222 191 176 168 176 174 170 170 166 166 165 178 175 160 152 147 151 156 154 149 152 152 150 149 146 145 148 147 148 152 148 143 142 142 147 148 153 162 154 160 156 150 115 108 132 182
228 237 235 239 264 32 305 323 60 283 314 286 306 297 285 280 281 264 263 237 223 203 203 236 225 236 237 237 231 185 303 281 17 0 348 350 347 342 334 326 317 306 287 321 311 269 241 223 211 198 215 208 173 172 172 170 169 168 163 150 115 116 150 117 114 127 129 133 148 153 153 151 154 152 151 149 146 150 152 151 146 146 143 144 147 149 154 157 153 154 157 164 143 124 122 113 100
207 207 242 265 316 310 205 298 332 302 267 264 281 272 274 261 270 263 226 170 150 174 226 264 268 255 250 256 255 221 131 42 344 337 340 347 338 331 318 307 315 307 302 291 275 275 279 256 227 217 184 176 173 174 169 156 138 115 111 94 101 97 63 120 131 132 145 145 138 156 164 155 153 152 150 148 149 153 153 151 151 149 145 148 147 152 159 162 152 153 153 153 161 152 149 136 96
283 213 199 18 20 341 328 329 338 332 317 356 333 345 298 231 212 273 148 142 185 201 202 229 232 232 229 225 167 55 20 26 350 345 326 281 264 286 291 292 283 275 282 286 282 283 292 290 274 240 163 176 178 177 162 147 148 144 138 138 139 140 147 161 165 157 155 158 161 143 136 152 149 148 144 144 144 146 152 153 150 150 151 153 155 154 149 144 145 156 169 160 157 159 143 135 131
4 267 359 49 358 319 314 330 25 316 318 271 154 193 278 316 298 288 184 196 207 197 201 219 220 223 210 73 46 23 0 340 346 325 310 313 311 305 280 266 261 255 250 254 262 259 262 270 272 271 181 180 174 175 161 148 146 155 159 160 159 161 160 182 186 162 155 147 138 145 140 131 140 143 141 141 142 147 147 151 153 152 152 153 152 151 160 161 153 156 144 145 145 133 134 139 155
238 91 19 58 320 318 332 13 186 248 298 288 239 177 257 310 281 254 171 181 209 196 210 223 232 16 44 36 17 358 354 354 339 327 319 322 318 301 286 275 266 258 244 232 239 250 249 248 260 259 199 193 172 169 161 153 153 160 162 161 164 165 170 168 161 159 132 131 134 137 137 130 123 126 135 136 138 142 144 147 149 148 149 152 151 158 157 150 139 138 140 140 130 138 143 143 152
173 150 76 358 38 325 339 211 249 257 332 301 115 222 243 249 262 291 134 225 228 211 186 315 20 56 70 12 348 348 353 340 325 321 326 319 308 305 302 295 280 273 261 227 226 228 236 242 246 244 213 193 169 158 156 158 161 164 166 165 167 168 159 144 133 143 145 142 130 130 133 132 126 121 121 125 132 138 142 147 148 146 146 148 143 142 145 148 151 149 147 149 152 143 138 142 145
93 359 299 208 121 152 180 214 288 309 24 279 189 206 220 270 254 282 172 169 233 211 353 314 45 64 123 296 342 353 324 319 346 330 325 320 311 303 295 288 282 268 260 229 225 225 230 231 243 242 213 176 160 152 157 164 164 163 168 170 164 147 133 133 138 143 144 147 138 138 137 139 141 134 129 124 121 128 137 141 148 148 145 140 133 137 137 144 149 152 154 152 150 144 150 148 155
147 226 343 276 176 159 156 258 307 342 282 247 160 281 142 301 259 217 202 202 178 248 232 208 9 19 350 12 12 338 326 348 346 332 325 322 315 306 299 286 276 281 252 218 227 223 229 236 243 235 202 158 156 155 158 162 167 168 167 167 159 148 146 144 140 145 149 144 145 145 148 145 144 142 138 136 136 135 131 136 141 141 139 136 131 136 144 145 148 148 145 141 146 150 159 153 127
62 56 346 328 15 47 81 262 149 45 282 178 321 2 355 197 292 284 168 166 173 168 298 314 314 321 319 353 342 313 358 348 334 336 329 324 316 310 308 304 301 298 262 214 213 225 231 244 231 185 144 156 147 150 158 161 163 168 162 159 154 149 150 155 158 158 164 153 150 147 146 141 146 146 147 146 150 145 141 140 135 135 140 138 135 133 135 139 140 139 140 144 144 144 140 156 142
122 163 267 89 269 111 304 87 336 195 232 295 326 327 338 229 235 261 287 296 100 101 121 240 274 296 331 341 302 299 24 339 327 341 328 321 317 315 320 321 319 334 295 197 211 226 237 223 167 124 124 134 137 144 158 158 160 162 160 160 155 152 157 160 159 158 164 160 154 151 155 154 150 155 162 158 156 155 155 157 153 150 149 143 136 133 130 130 132 134 138 142 147 155 159 156 164
165 160 164 140 334 337 260 263 243 234 324 259 122 337 237 279 284 241 247 254 128 128 126 158 148 332 304 307 290 54 11 315 340 360 325 324 322 321 326 326 338 340 356 25 187 175 164 150 126 118 126 130 132 138 144 154 159 157 159 158 153 152 158 159 159 160 166 164 161 160 161 163 162 163 159 162 157 156 159 159 153 144 137 133 138 138 137 136 135 134 138 141 154 161 154 160 167
194 125 108 166 143 176 282 261 257 235 276 246 297 34 238 193 253 227 168 123 116 132 166 161 159 152 186 290 277 82 355 336 25 2 324 332 331 326 329 352 12 11 21 81 81 103 112 113 120 124 119 119 129 140 143 151 155 154 158 151 150 153 155 156 157 162 160 157 158 149 147 150 155 155 156 151 156 159 157 155 154 146 141 142 143 142 140 136 137 133 140 147 148 157 159 154 166
134 138 78 74 214 162 201 277 309 301 6 319 250 207 233 195 238 190 142 154 140 145 184 185 158 127 44 328 279 94 24 336 32 353 340 345 339 336 348 357 20 41 31 113 103 94 96 98 103 117 132 137 133 133 144 156 156 149 156 151 152 149 149 149 142 148 152 152 152 150 147 150 148 146 150 153 158 157 157 154 149 147 141 143 148 145 141 138 139 139 142 148 153 152 153 163 174
213 86 192 198 164 109 323 322 350 82 102 247 210 286 283 289 299 300 163 148 182 157 203 155 126 107 3 272 258 133 82 302 44 4 357 356 345 349 3 356 359 37 47 31 59 70 81 104 119 118 110 115 139 144 152 163 158 140 150 150 148 148 150 154 151 151 149 143 142 140 143 145 143 148 149 152 153 153 153 152 147 146 150 151 147 147 143 141 147 149 154 157 161 159 155 172 166
95 164 221 183 84 110 124 252 304 208 231 266 173 255 297 33 297 335 146 240 244 219 192 166 156 138 251 261 242 143 135 82 80 9 25 13 355 358 4 27 21 29 55 56 55 71 85 99 116 114 117 118 112 138 144 148 142 131 137 145 151 149 145 140 142 142 141 138 138 136 135 140 150 146 147 150 150 150 151 150 148 147 149 150 147 146 146 151 154 154 160 166 159 153 154 157 167
92 174 262 104 221 140 164 82 315 331 281 277 251 271 258 208 262 194 240 203 230 213 192 219 203 182 232 262 236 133 170 127 87 29 28 12 15 358 11 50 55 61 49 72 78 69 84 94 98 121 124 119 121 100 98 117 126 125 130 138 145 143 137 135 133 135 140 143 145 146 145 142 135 138 143 150 151 151 152 152 150 149 152 150 144 149 153 158 159 153 159 156 151 156 162 165 164
34 34 302 273 86 185 144 199 200 125 271 344 277 351 281 195 217 197 216 202 199 190 219 248 226 196 214 242 210 152 174 136 107 103 46 39 15 16 19 33 44 53 78 71 80 84 87 91 103 100 96 100 99 114 106 91 93 107 111 119 122 128 131 137 140 141 146 148 148 147 145 146 148 141 144 148 154 155 155 153 153 152 152 149 152 156 161 159 157 158 158 156 159 161 164 165 163
151 127 216 86 188 232 100 294 162 178 237 257 295 311 277 220 209 185 206 185 181 177 214 239 222 203 201 234 203 166 169 132 137 128 104 57 36 9 38 64 56 48 85 93 87 95 103 103 108 115 121 123 117 108 113 113 107 104 113 124 126 126 128 133 135 141 142 145 143 145 147 144 138 147 149 152 155 157 156 155 153 154 157 160 161 164 165 162 161 160 165 158 158 163 163 161 160
171 167 194 176 143 133 121 265 53 103 134 243 292 274 278 276 221 238 198 171 158 178 188 227 211 196 198 233 191 173 165 139 154 136 121 114 61 9 64 97 98 91 85 88 102 107 113 122 129 132 130 130 132 129 119 118 119 127 127 126 126 123 129 134 136 139 140 143 144 144 142 142 149 149 154 155 155 153 155 155 155 158 161 165 169 169 168 165 164 161 160 158 161 165 163 166 165